Date String (YYYY-MM-DD hh:mm:ss) UTC,Instrument flags,Ambient pressure (hPa),Sample flow (lpm),Bypass flow (lpm),Sample temperature (°C),Ambient temperature (°C),ASC tube jacket temperature (°C),LED temperature (°C),Box temperature (°C),Sample RH (%),Span deviation,Mass concentration (μg/m³),Mass concentration (μg/m³),Mass concentration (μg/m³)
DateTimeUTC,F1_M11,P_M11,Q1_M11,Q2_M11,T1_M11,T2_M11,T3_M11,T4_M11,T5_M11,U1_M11,ZSPAN_M11,X0_M11,X2_M11,X1_M11
2022-05-27 11:00:00,,0825.5,5.00,0.00,30.0,28.8,00.0,39.0,31.8,10.8,0000.0,0005.44,0002.45,0001.63
2022-05-27 11:01:00,,0825.5,4.99,0.00,30.0,28.8,00.0,39.0,31.8,10.7,0000.0,0004.30,0002.43,0001.62
2022-05-27 11:02:00,,0825.5,5.00,0.00,30.0,28.8,00.0,39.0,31.8,10.6,0000.0,0004.24,0002.45,0001.62
2022-05-27 11:03:00,,0825.5,5.01,0.00,30.0,28.8,00.0,39.0,31.8,10.3,0000.0,0004.10,0002.46,0001.63
2022-05-27 11:04:00,,0825.5,4.99,0.00,30.0,28.8,00.0,39.0,31.7,10.6,0000.0,0004.04,0002.44,0001.64
2022-05-27 11:05:00,,0825.5,5.00,0.00,30.0,28.8,00.0,39.0,31.8,11.0,0000.0,0004.01,0002.41,0001.63
2022-05-27 11:06:00,,0825.5,5.00,0.00,30.0,28.8,00.0,39.0,31.8,11.6,0000.0,0004.16,0002.43,0001.65
2022-05-27 11:07:00,,0825.5,5.00,0.00,30.0,28.8,00.0,39.0,31.8,11.1,0000.0,0004.16,0002.39,0001.66
2022-05-27 11:08:00,,0825.5,5.01,0.00,30.0,28.8,00.0,39.0,31.8,10.8,0000.0,0004.09,0002.33,0001.66
2022-05-27 11:09:00,,0825.5,5.00,0.00,30.0,28.8,00.0,39.0,31.7,10.5,0000.0,0003.75,0002.26,0001.65
2022-05-27 11:10:00,,0825.5,5.00,0.00,30.0,28.8,00.0,39.0,31.7,10.3,0000.0,0003.80,0002.29,0001.66
2022-05-27 11:11:00,,0825.4,5.00,0.00,30.0,28.8,00.0,39.0,31.7,10.3,0000.0,0003.75,0002.28,0001.67
2022-05-27 11:12:00,,0825.4,5.00,0.00,30.0,28.8,00.0,39.0,31.7,10.0,0000.0,0003.75,0002.29,0001.69
2022-05-27 11:13:00,,0825.4,5.01,0.00,30.0,28.8,00.0,38.9,31.7,10.4,0000.0,0003.78,0002.31,0001.70
2022-05-27 11:14:00,,0825.5,5.01,0.00,29.9,28.8,00.0,38.9,31.7,10.8,0000.0,0004.28,0002.37,0001.71
2022-05-27 11:15:00,,0825.5,5.00,0.00,29.9,28.8,00.0,38.9,31.7,11.5,0000.0,0005.25,0002.42,0001.72
2022-05-27 11:16:00,,0825.5,5.00,0.00,29.9,28.8,00.0,38.9,31.7,11.7,0000.0,0006.11,0002.42,0001.75
2022-05-27 11:17:00,,0825.4,5.00,0.00,29.9,28.8,00.0,38.9,31.7,11.3,0000.0,0006.03,0002.40,0001.75
2022-05-27 11:18:00,,0825.4,4.99,0.00,29.9,28.8,00.0,38.9,31.7,11.3,0000.0,0005.90,0002.40,0001.73
2022-05-27 11:19:00,,0825.4,4.99,0.00,29.9,28.8,00.0,38.9,31.7,11.4,0000.0,0006.03,0002.44,0001.73
2022-05-27 11:20:00,,0825.4,5.00,0.00,29.9,28.8,00.0,38.9,31.7,11.3,0000.0,0006.04,0002.45,0001.74
2022-05-27 11:21:00,,0825.4,5.00,0.00,29.9,28.8,00.0,38.9,31.7,11.3,0000.0,0006.05,0002.45,0001.73
2022-05-27 11:22:00,,0825.5,5.01,0.00,29.9,28.8,00.0,38.9,31.8,11.4,0000.0,0006.26,0002.52,0001.73
2022-05-27 11:23:00,,0825.5,5.00,0.00,29.9,28.8,00.0,38.9,31.7,11.5,0000.0,0006.35,0002.53,0001.70
2022-05-27 11:24:00,,0825.5,5.00,0.00,29.9,28.9,00.0,38.9,31.7,11.4,0000.0,0006.20,0002.46,0001.68
2022-05-27 11:25:00,,0825.5,4.99,0.00,29.9,28.9,00.0,38.9,31.7,11.4,0000.0,0005.78,0002.46,0001.66
2022-05-27 11:26:00,,0825.4,4.99,0.00,29.9,28.9,00.0,38.9,31.7,11.6,0000.0,0004.87,0002.45,0001.65
2022-05-27 11:27:00,,0825.4,5.00,0.00,29.9,28.9,00.0,38.9,31.7,11.6,0000.0,0003.81,0002.39,0001.62
2022-05-27 11:28:00,,0825.4,5.00,0.00,29.9,28.9,00.0,38.9,31.7,11.6,0000.0,0003.91,0002.39,0001.61
2022-05-27 11:29:00,,0825.5,5.00,0.00,29.9,28.9,00.0,38.9,31.7,11.6,0000.0,0004.02,0002.41,0001.62
2022-05-27 11:30:00,,0825.5,5.00,0.00,29.9,28.9,00.0,38.9,31.8,11.3,0000.0,0003.92,0002.37,0001.60
2022-05-27 11:31:00,,0825.5,5.01,0.00,29.9,28.9,00.0,38.9,31.7,11.4,0000.0,0004.04,0002.39,0001.59
2022-05-27 11:32:00,,0825.5,5.00,0.00,29.9,28.9,00.0,38.9,31.7,11.5,0000.0,0004.07,0002.40,0001.59
2022-05-27 11:33:00,,0825.5,5.00,0.00,29.9,28.9,00.0,38.9,31.7,11.5,0000.0,0003.95,0002.36,0001.58
2022-05-27 11:34:00,,0825.4,4.99,0.00,29.9,28.9,00.0,38.9,31.8,11.2,0000.0,0003.82,0002.32,0001.60
2022-05-27 11:35:00,,0825.5,4.99,0.00,29.9,28.9,00.0,38.9,31.8,11.0,0000.0,0003.96,0002.37,0001.61
2022-05-27 11:36:00,,0825.5,5.00,0.00,29.9,28.9,00.0,38.9,31.7,11.1,0000.0,0004.07,0002.36,0001.60
2022-05-27 11:37:00,,0825.4,5.01,0.00,29.9,28.9,00.0,38.9,31.7,11.1,0000.0,0004.15,0002.37,0001.59
2022-05-27 11:38:00,,0825.4,5.00,0.00,29.9,28.9,00.0,38.9,31.7,11.0,0000.0,0004.38,0002.44,0001.59
2022-05-27 11:39:00,,0825.4,4.99,0.00,29.9,28.8,00.0,38.9,31.7,11.0,0000.0,0004.42,0002.48,0001.59
2022-05-27 11:40:00,,0825.4,5.01,0.00,29.9,28.8,00.0,38.9,31.7,11.0,0000.0,0004.45,0002.49,0001.59
2022-05-27 11:41:00,,0825.5,5.01,0.00,29.9,28.8,00.0,38.9,31.7,11.0,0000.0,0004.49,0002.49,0001.59
2022-05-27 11:42:00,,0825.4,5.00,0.00,29.9,28.8,00.0,38.9,31.7,11.0,0000.0,0004.67,0002.52,0001.61
2022-05-27 11:43:00,,0825.5,5.00,0.00,29.9,28.9,00.0,38.9,31.7,11.0,0000.0,0004.97,0002.56,0001.62
2022-05-27 11:44:00,,0825.5,5.01,0.00,29.9,28.9,00.0,38.9,31.8,11.0,0000.0,0005.82,0002.57,0001.63
2022-05-27 11:45:00,,0825.5,5.01,0.00,29.9,28.9,00.0,38.9,31.8,11.1,0000.0,0005.89,0002.57,0001.63
2022-05-27 11:46:00,,0825.5,4.99,0.00,29.9,28.9,00.0,38.9,31.7,11.2,0000.0,0007.05,0002.57,0001.63
2022-05-27 11:47:00,,0825.6,5.01,0.00,29.9,28.9,00.0,38.9,31.7,11.1,0000.0,0007.41,0002.56,0001.66
2022-05-27 11:48:00,,0825.5,5.00,0.00,29.9,28.9,00.0,38.9,31.7,11.1,0000.0,0007.36,0002.53,0001.68
2022-05-27 11:49:00,,0825.5,5.00,0.00,29.9,28.9,00.0,38.9,31.7,11.0,0000.0,0007.32,0002.51,0001.68
2022-05-27 11:50:00,,0825.5,4.99,0.00,29.9,28.8,00.0,38.9,31.7,11.0,0000.0,0007.29,0002.50,0001.70
2022-05-27 11:51:00,,0825.5,5.00,0.00,29.9,28.8,00.0,38.9,31.7,10.9,0000.0,0007.67,0002.51,0001.73
2022-05-27 11:52:00,,0825.5,4.99,0.00,29.9,28.8,00.0,38.9,31.7,10.8,0000.0,0007.62,0002.53,0001.76
2022-05-27 11:53:00,,0825.5,5.01,0.00,29.9,28.9,00.0,38.9,31.7,10.8,0000.0,0007.58,0002.55,0001.78
2022-05-27 11:54:00,,0825.5,5.00,0.00,29.9,28.9,00.0,38.9,31.7,10.8,0000.0,0007.32,0002.53,0001.79
2022-05-27 11:55:00,,0825.5,5.00,0.00,29.9,28.9,00.0,38.9,31.8,10.8,0000.0,0007.17,0002.53,0001.81
2022-05-27 11:56:00,,0825.5,5.01,0.00,29.9,28.9,00.0,38.9,31.8,10.8,0000.0,0007.44,0002.62,0001.85
2022-05-27 11:57:00,,0825.5,5.00,0.00,29.9,28.9,00.0,38.9,31.8,10.7,0000.0,0006.46,0002.67,0001.88
2022-05-27 11:58:00,,0825.5,5.00,0.00,30.0,28.9,00.0,38.9,31.8,10.7,0000.0,0006.16,0002.67,0001.88
2022-05-27 11:59:00,,0825.5,5.00,0.00,30.0,28.9,00.0,38.9,31.7,10.7,0000.0,0006.19,0002.68,0001.89
